Zurück zum Katalog

CZ-6A DEB

AktivPO
NORAD 61305·DEBRIS·🇨🇳 China

Gestartet Aug 6, 2024 von Taiyuan Satellite Launch Center

Loading…

Nächste Überflüge (nächste 24 Stunden)

TLE

AktuellSource: Space-Track

Epoche: Sep 14, 2026, 10:32 UTC

1 61305U 24140TS  26257.43892983  .00003566  00000-0  64136-3 0  9997
2 61305  88.9791 257.2282 0086855 287.4349  71.7384 14.63994602108986

Verfolge CZ-6A DEB in Echtzeit mit AllMySat

Download on the App Store